Time,TemperatureF,DewpointF,PressureIn,WindDirection,WindDirectionDegrees,WindSpeedMPH,WindSpeedGustMPH,Humidity,HourlyPrecipIn,Conditions,Clouds,dailyrainin,SolarRadiationWatts/m^2,SoftwareType,DateUTC
2013-10-06 00:44:00,61.0,60.0,-100.00,North,1,1.0,5.0,97,0.00,,,0.00,0.000000,,2013-10-06 04:44:00,
2013-10-06 00:54:00,61.0,60.0,-100.00,North,1,1.0,5.0,97,0.00,,,0.00,0.000000,,2013-10-06 04:54:00,
2013-10-06 01:03:00,61.0,60.0,-100.00,North,1,1.0,5.0,97,0.00,,,0.00,0.000000,,2013-10-06 05:03:00,
2013-10-06 01:43:00,60.0,59.0,-100.00,North,1,1.0,4.0,97,0.00,,,0.00,0.000000,,2013-10-06 05:43:00,
2013-10-06 01:52:00,60.0,59.0,-100.00,North,1,1.0,4.0,97,0.00,,,0.00,0.000000,,2013-10-06 05:52:00,
2013-10-06 02:02:00,60.0,59.0,-100.00,North,1,1.0,4.0,97,0.00,,,0.00,0.000000,,2013-10-06 06:02:00,
2013-10-06 02:42:00,59.0,58.0,-100.00,North,0,2.0,5.0,97,0.00,,,0.00,0.000000,,2013-10-06 06:42:00,
2013-10-06 02:52:00,59.0,58.0,-100.00,North,0,2.0,5.0,97,0.00,,,0.00,0.000000,,2013-10-06 06:52:00,
2013-10-06 03:02:00,59.0,58.0,-100.00,North,0,2.0,5.0,97,0.00,,,0.00,0.000000,,2013-10-06 07:02:00,
2013-10-06 03:43:00,58.0,57.0,-100.00,North,1,1.0,5.0,97,0.00,,,0.00,0.000000,,2013-10-06 07:43:00,
2013-10-06 03:52:00,58.0,57.0,-100.00,North,1,1.0,5.0,97,0.00,,,0.00,0.000000,,2013-10-06 07:52:00,
2013-10-06 04:03:00,58.0,57.0,-100.00,North,1,1.0,5.0,97,0.00,,,0.00,0.000000,,2013-10-06 08:03:00,
2013-10-06 04:42:00,57.0,56.0,-100.00,North,1,1.0,6.0,97,0.00,,,0.00,0.000000,,2013-10-06 08:42:00,
2013-10-06 04:53:00,57.0,56.0,-100.00,North,1,1.0,6.0,97,0.00,,,0.00,0.000000,,2013-10-06 08:53:00,
2013-10-06 05:01:00,57.0,56.0,-100.00,North,1,1.0,6.0,97,0.00,,,0.00,0.000000,,2013-10-06 09:01:00,
2013-10-06 05:43:00,56.0,55.0,-100.00,North,1,1.0,5.0,98,0.00,,,0.00,0.000000,,2013-10-06 09:43:00,
2013-10-06 05:53:00,56.0,55.0,-100.00,North,1,1.0,5.0,98,0.00,,,0.00,0.000000,,2013-10-06 09:53:00,
2013-10-06 06:03:00,56.0,55.0,-100.00,North,1,1.0,5.0,98,0.00,,,0.00,0.000000,,2013-10-06 10:03:00,
2013-10-06 06:43:00,57.0,56.0,-100.00,North,1,3.0,5.0,98,0.00,,,0.00,0.000000,,2013-10-06 10:43:00,
2013-10-06 06:53:00,57.0,56.0,-100.00,North,1,3.0,5.0,98,0.00,,,0.00,0.000000,,2013-10-06 10:53:00,
2013-10-06 07:03:00,57.0,56.0,-100.00,North,1,3.0,5.0,98,0.00,,,0.00,0.000000,,2013-10-06 11:03:00,
2013-10-06 07:42:00,56.0,55.0,-100.00,North,1,1.0,4.0,98,0.00,,,0.00,0.000000,,2013-10-06 11:42:00,
2013-10-06 07:52:00,56.0,55.0,-100.00,North,1,1.0,4.0,98,0.00,,,0.00,0.000000,,2013-10-06 11:52:00,
2013-10-06 08:02:00,56.0,55.0,-100.00,North,1,1.0,4.0,98,0.00,,,0.00,0.000000,,2013-10-06 12:02:00,
2013-10-06 08:42:00,57.0,56.0,-100.00,North,1,2.0,5.0,98,0.00,,,0.00,9.000000,,2013-10-06 12:42:00,
2013-10-06 08:52:00,57.0,56.0,-100.00,North,1,2.0,5.0,98,0.00,,,0.00,9.000000,,2013-10-06 12:52:00,
2013-10-06 09:02:00,57.0,56.0,-100.00,North,1,2.0,5.0,98,0.00,,,0.00,9.000000,,2013-10-06 13:02:00,
2013-10-06 09:42:00,60.0,59.0,-100.00,North,1,2.0,5.0,98,0.00,,,0.00,85.000000,,2013-10-06 13:42:00,
2013-10-06 09:52:00,60.0,59.0,-100.00,North,1,2.0,5.0,98,0.00,,,0.00,85.000000,,2013-10-06 13:52:00,
2013-10-06 10:02:00,60.0,59.0,-100.00,North,1,2.0,5.0,98,0.00,,,0.00,85.000000,,2013-10-06 14:02:00,
2013-10-06 10:42:00,66.0,65.0,-100.00,North,2,2.0,5.0,97,0.00,,,0.00,215.000000,,2013-10-06 14:42:00,
2013-10-06 10:52:00,66.0,65.0,-100.00,North,2,2.0,5.0,97,0.00,,,0.00,215.000000,,2013-10-06 14:52:00,
2013-10-06 11:02:00,66.0,65.0,-100.00,North,2,2.0,5.0,97,0.00,,,0.00,215.000000,,2013-10-06 15:02:00,
2013-10-06 11:44:00,75.0,68.0,-100.00,North,1,2.0,5.0,78,0.00,,,0.00,522.000000,,2013-10-06 15:44:00,
2013-10-06 11:54:00,75.0,68.0,-100.00,North,1,2.0,5.0,78,0.00,,,0.00,522.000000,,2013-10-06 15:54:00,
2013-10-06 12:03:00,75.0,68.0,-100.00,North,1,2.0,5.0,78,0.00,,,0.00,522.000000,,2013-10-06 16:03:00,
2013-10-06 12:43:00,79.0,63.0,-100.00,North,3,3.0,9.0,58,0.00,,,0.00,754.000000,,2013-10-06 16:43:00,
2013-10-06 12:53:00,79.0,63.0,-100.00,North,3,3.0,9.0,58,0.00,,,0.00,754.000000,,2013-10-06 16:53:00,
2013-10-06 13:02:00,79.0,63.0,-100.00,North,3,3.0,9.0,58,0.00,,,0.00,754.000000,,2013-10-06 17:02:00,
2013-10-06 13:42:00,78.0,62.0,-100.00,North,3,4.0,7.0,59,0.00,,,0.00,545.000000,,2013-10-06 17:42:00,
2013-10-06 13:53:00,78.0,62.0,-100.00,North,3,4.0,7.0,59,0.00,,,0.00,545.000000,,2013-10-06 17:53:00,
2013-10-06 14:02:00,78.0,62.0,-100.00,North,3,4.0,7.0,59,0.00,,,0.00,545.000000,,2013-10-06 18:02:00,
2013-10-06 14:43:00,77.0,61.0,-100.00,North,3,2.0,11.0,58,0.00,,,0.00,457.000000,,2013-10-06 18:43:00,
2013-10-06 14:52:00,77.0,61.0,-100.00,North,3,2.0,11.0,58,0.00,,,0.00,457.000000,,2013-10-06 18:52:00,
2013-10-06 15:01:00,77.0,61.0,-100.00,North,3,2.0,11.0,58,0.00,,,0.00,457.000000,,2013-10-06 19:01:00,
2013-10-06 15:42:00,77.0,61.0,-100.00,North,4,4.0,9.0,57,0.00,,,0.00,402.000000,,2013-10-06 19:42:00,
2013-10-06 15:53:00,77.0,61.0,-100.00,North,4,4.0,9.0,57,0.00,,,0.00,402.000000,,2013-10-06 19:53:00,
2013-10-06 16:02:00,77.0,61.0,-100.00,North,4,4.0,9.0,57,0.00,,,0.00,402.000000,,2013-10-06 20:02:00,
2013-10-06 16:42:00,78.0,59.0,-100.00,North,2,4.0,10.0,52,0.00,,,0.00,597.000000,,2013-10-06 20:42:00,
2013-10-06 16:53:00,78.0,59.0,-100.00,North,2,4.0,10.0,52,0.00,,,0.00,597.000000,,2013-10-06 20:53:00,
2013-10-06 17:01:00,78.0,59.0,-100.00,North,2,4.0,10.0,52,0.00,,,0.00,597.000000,,2013-10-06 21:01:00,
2013-10-06 17:44:00,75.0,59.0,-100.00,North,2,3.0,11.0,58,0.00,,,0.00,226.000000,,2013-10-06 21:44:00,
2013-10-06 17:55:00,75.0,59.0,-100.00,North,2,3.0,11.0,58,0.00,,,0.00,226.000000,,2013-10-06 21:55:00,
2013-10-06 18:04:00,75.0,59.0,-100.00,North,2,3.0,11.0,58,0.00,,,0.00,226.000000,,2013-10-06 22:04:00,
2013-10-06 18:43:00,72.0,58.0,-100.00,North,2,2.0,7.0,62,0.00,,,0.00,133.000000,,2013-10-06 22:43:00,
2013-10-06 18:54:00,72.0,58.0,-100.00,North,2,2.0,7.0,62,0.00,,,0.00,133.000000,,2013-10-06 22:54:00,
2013-10-06 19:03:00,72.0,58.0,-100.00,North,2,2.0,7.0,62,0.00,,,0.00,133.000000,,2013-10-06 23:03:00,
2013-10-06 19:42:00,67.0,58.0,-100.00,North,1,1.0,6.0,73,0.00,,,0.00,33.000000,,2013-10-06 23:42:00,
2013-10-06 19:53:00,67.0,58.0,-100.00,North,1,1.0,6.0,73,0.00,,,0.00,33.000000,,2013-10-06 23:53:00,
2013-10-06 20:02:00,67.0,58.0,-100.00,North,1,1.0,6.0,73,0.00,,,0.00,33.000000,,2013-10-07 00:02:00,
2013-10-06 20:42:00,67.0,60.0,-100.00,North,1,2.0,3.0,79,0.00,,,0.00,0.000000,,2013-10-07 00:42:00,
2013-10-06 20:52:00,67.0,60.0,-100.00,North,1,2.0,3.0,79,0.00,,,0.00,0.000000,,2013-10-07 00:52:00,
2013-10-06 21:02:00,67.0,60.0,-100.00,North,1,2.0,3.0,79,0.00,,,0.00,0.000000,,2013-10-07 01:02:00,
2013-10-06 21:42:00,68.0,60.0,-100.00,North,1,2.0,7.0,76,0.01,,,0.01,0.000000,,2013-10-07 01:42:00,
2013-10-06 21:53:00,68.0,60.0,-100.00,North,1,2.0,7.0,76,0.01,,,0.01,0.000000,,2013-10-07 01:53:00,
2013-10-06 22:02:00,68.0,60.0,-100.00,North,1,2.0,7.0,76,0.01,,,0.01,0.000000,,2013-10-07 02:02:00,
2013-10-06 22:42:00,64.0,63.0,-100.00,North,2,2.0,7.0,95,0.07,,,0.08,0.000000,,2013-10-07 02:42:00,
2013-10-06 22:53:00,64.0,63.0,-100.00,North,2,2.0,7.0,95,0.07,,,0.08,0.000000,,2013-10-07 02:53:00,
2013-10-06 23:02:00,64.0,63.0,-100.00,North,2,2.0,7.0,95,0.07,,,0.08,0.000000,,2013-10-07 03:02:00,
2013-10-06 23:44:00,64.0,63.0,-100.00,North,1,4.0,6.0,97,0.05,,,0.13,0.000000,,2013-10-07 03:44:00,
2013-10-06 23:54:00,64.0,63.0,-100.00,North,1,4.0,6.0,97,0.05,,,0.13,0.000000,,2013-10-07 03:54:00,